Location: Chuathbaluk
(61.5726°N, 159.2454°W)
Time: 14:12:52
(UTC+00:00)

N. Korean satellite - Pass Details

Date: 03 November 2020
Orbit: 453 x 503 km, 97.2° (Epoch: 03 December)

Event Time Altitude Azimuth Distance (km) Brightness Sun altitude
Rises 03:34:19 0° 185° (S) 2,513 10.5 -7.9°
Reaches altitude 10° 03:36:30 10° 194° (SSW) 1,631 9.7 -8.2°
Maximum altitude 03:39:45 36° 262° (W) 765 8.4 -8.6°
Drops below altitude 10° 03:42:59 10° 331° (NNW) 1,622 9.4 -8.9°
Sets 03:45:09 0° 340° (NNW) 2,496 10.2 -9.2°
